User: anonymous   Login
Location: Équennes
(49.7375°N, 1.9622°E)
Time: 22:56:16
(UTC+00:00)
Language:

BREEZE-M DEB (TANK) - Orbit

View from above orbital plane
View from above orbital plane
View from above satellite
View from above satellite

Ground track
Ground track

The orbit data is extracted from the following two-line orbital elements,

1 31863U 07032B   23159.25397963  .00000544  00000-0  49175-3 0  9999
2 31863  45.9156 206.9587 4957705 175.9210 190.6019  5.53027484320056
Epoch (UTC): 08 June 2023 06:05:43
Eccentricity: 0.4957705
inclination: 45.9156°
perigee height: 432 km
apogee height: 13825 km
right ascension of ascending node: 206.9587°
argument of perigee: 175.9210°
revolutions per day: 5.53027484
mean anomaly at epoch: 190.6019°
orbit number at epoch: 32005

The dashed part of the orbit path shows where the satellite is in the earth's shadow,  

DLR